Zurück zum Katalog

INMARSAT 6-F2

AktivKommunikationHEO
NORAD 55683·PAYLOAD·🇮🇲 IM

Gestartet Feb 18, 2023 von Cape Canaveral Space Force Station

Loading…

Nächste Überflüge (nächste 24 Stunden)

TLE

AktuellSource: Space-Track

Epoche: Sep 14, 2026, 14:02 UTC

1 55683U 23022A   26257.58480772 -.00000061  00000-0  00000+0 0  9996
2 55683   5.7563  36.8766 3079761 216.5125 357.7952  1.00960093 11453

Verfolge INMARSAT 6-F2 in Echtzeit mit AllMySat

Download on the App Store